Weather History for Verona, Italy

Change the Weather History Date:

Friday, September 27, 2013

  Actual Average Record
Temperature  
Mean Temperature 72 °F -  
Max Temperature 80 °F 66 °F 82 °F (2006)
Min Temperature 65 °F 48 °F 46 °F (1996)
Cooling Degree Days 8    
Growing Degree Days 22 (Base 50)    
Moisture  
Dew Point 63 °F    
Average Humidity 73    
Maximum Humidity 89    
Minimum Humidity 43    
Precipitation  
Precipitation 0.00 in 0.10 in - ()
Sea Level Pressure  
Sea Level Pressure 29.96 in    
Wind  
Wind Speed 2 mph ()    
Max Wind Speed 8 mph    
Max Gust Speed -    
Visibility 4.1 miles    
Events      
Averages and records for this station are not official NWS values.
T = Trace of Precipitation, MM = Missing Value Source: Averaged Metar Reports

Daily Weather History Graph

Daily Weather History Graph

Search for Another Location

Airport:

Trip Planner

Search our weather history database for the weather conditions in past years. The results will help you decide how hot, cold, wet, or windy it might be!

Date:

Astronomy

Sep. 27, 2013 Rise Set
Actual Time 7:09 AM CEST 7:04 PM CEST
Civil Twilight 6:40 AM CEST 7:33 PM CEST
Nautical Twilight 6:05 AM CEST 8:08 PM CEST
Astronomical Twilight 5:30 AM CEST 8:43 PM CEST
Moon No Moon Rise 2:46 PM CEST (9/27)
Length of Visible Light 12h 53m
Length of Day
11h 54m
Waning Gibbous, 48% of the Moon is Illuminated
Sep 27
Waning Gibbous
Oct 5
New
Oct 12
First Quarter
Oct 19
Full
Oct 27
Last Quarter

Hourly Weather History & Observations

Time (CEST) Temp. Dew Point Humidity Pressure Visibility Wind Dir Wind Speed Gust Speed Precip Events Conditions
12:15 AM 71.6 °F 62.6 °F 73% 29.98 in 6.2 mi West 2.3 mph - N/A   Scattered Clouds
12:45 AM 71.6 °F 62.6 °F 73% 29.98 in 6.2 mi West 1.2 mph - N/A   Scattered Clouds
1:15 AM 71.6 °F 62.6 °F 73% 29.98 in 6.2 mi West 1.2 mph - N/A   Partly Cloudy
1:45 AM 71.6 °F 62.6 °F 73% 29.98 in 6.2 mi West 1.2 mph - N/A   Partly Cloudy
2:15 AM 66.2 °F 62.6 °F 88% 29.98 in 5.0 mi Calm Calm - N/A   Mostly Cloudy
2:45 AM 66.2 °F 62.6 °F 88% 29.98 in 4.3 mi West 1.2 mph - N/A   Mostly Cloudy
3:15 AM 66.2 °F 62.6 °F 88% 29.98 in 4.3 mi WNW 3.5 mph - N/A   Mostly Cloudy
3:45 AM 66.2 °F 62.6 °F 88% 29.98 in 4.3 mi NW 3.5 mph - N/A   Mostly Cloudy
4:15 AM 66.2 °F 62.6 °F 88% 29.98 in 4.3 mi Calm Calm - N/A   Mostly Cloudy
4:45 AM 66.2 °F 62.6 °F 88% 29.98 in 4.3 mi Calm Calm - N/A   Mostly Cloudy
5:00 AM 65 °F 62 °F 89% 29.97 in 4 mi Calm Calm - -   Mist
5:15 AM 66.2 °F 62.6 °F 88% 29.98 in 3.7 mi ENE 2.3 mph - N/A   Mostly Cloudy
5:45 AM 66.2 °F 62.6 °F 88% 29.98 in 3.7 mi ENE 2.3 mph - N/A   Mostly Cloudy
6:15 AM 66.2 °F 62.6 °F 88% 29.98 in 3.7 mi ENE 2.3 mph - N/A   Mostly Cloudy
6:45 AM 66.2 °F 62.6 °F 88% 29.98 in 3.7 mi ENE 1.2 mph - N/A   Scattered Clouds
7:15 AM 66.2 °F 62.6 °F 88% 29.98 in 2.5 mi East 1.2 mph - N/A   Mostly Cloudy
7:45 AM 66.2 °F 62.6 °F 88% 29.98 in 1.9 mi Calm Calm - N/A   Mostly Cloudy
8:00 AM 67 °F 63 °F 83% 29.98 in 2 mi Calm Calm - -   Mist
8:15 AM 68.0 °F 62.6 °F 83% 29.98 in 2.5 mi Calm Calm - N/A   Mostly Cloudy
8:45 AM 68.0 °F 62.6 °F 83% 29.98 in 2.5 mi North 1.2 mph - N/A   Mostly Cloudy
9:15 AM 69.8 °F 64.4 °F 83% 29.98 in 2.5 mi SSE 2.3 mph - N/A   Mostly Cloudy
9:45 AM 69.8 °F 64.4 °F 83% 29.98 in 2.5 mi South 2.3 mph - N/A   Mostly Cloudy
10:15 AM 71.6 °F 64.4 °F 78% 29.98 in 2.5 mi SSE 3.5 mph - N/A   Mostly Cloudy
10:45 AM 71.6 °F 64.4 °F 78% 29.98 in 2.5 mi SSE 2.3 mph - N/A   Mostly Cloudy
11:00 AM 72 °F 64 °F 69% 29.99 in 2 mi SSE 2.3 mph - -   Mist
11:15 AM 71.6 °F 64.4 °F 78% 29.98 in 2.5 mi SSE 2.3 mph - N/A   Mostly Cloudy
11:45 AM 73.4 °F 64.4 °F 73% 29.98 in 2.8 mi South 2.3 mph - N/A   Mostly Cloudy
12:15 PM 73.4 °F 64.4 °F 73% 29.98 in 2.8 mi ESE 1.2 mph - N/A   Mostly Cloudy
12:45 PM 73.4 °F 64.4 °F 73% 29.98 in 3.1 mi South 1.2 mph - N/A   Mostly Cloudy
1:15 PM 75.2 °F 64.4 °F 69% 29.98 in 3.1 mi South 1.2 mph - N/A   Mostly Cloudy
1:45 PM 75.2 °F 64.4 °F 69% 29.98 in 3.1 mi SW 3.5 mph - N/A   Scattered Clouds
2:00 PM 76 °F 64 °F 58% 29.97 in 3 mi SW 3.5 mph - -   Mist
2:15 PM 77.0 °F 62.6 °F 61% 29.95 in 3.1 mi WSW 4.6 mph - N/A   Scattered Clouds
2:45 PM 78.8 °F 62.6 °F 57% 29.95 in 3.1 mi SW 5.8 mph - N/A   Scattered Clouds
3:15 PM 78.8 °F 62.6 °F 57% 29.95 in 3.7 mi West 3.5 mph - N/A   Scattered Clouds
3:45 PM 78.8 °F 62.6 °F 57% 29.95 in 3.7 mi West 6.9 mph - N/A   Scattered Clouds
4:15 PM 78.8 °F 60.8 °F 54% 29.92 in 3.7 mi SSW 8.1 mph - N/A   Scattered Clouds
4:45 PM 78.8 °F 60.8 °F 54% 29.92 in 3.7 mi West 5.8 mph - N/A   Scattered Clouds
5:00 PM 79 °F 60 °F 43% 29.92 in 4 mi West 5.8 mph - -   Mist
5:15 PM 78.8 °F 59.0 °F 51% 29.92 in 6.2 mi WSW 5.8 mph - N/A   Scattered Clouds
5:45 PM 78.8 °F 59.0 °F 51% 29.92 in 6.2 mi SSW 3.5 mph - N/A   Scattered Clouds
6:15 PM 77.0 °F 59.0 °F 54% 29.92 in 6.2 mi SW 4.6 mph - N/A   Mostly Cloudy
6:45 PM 77.0 °F 59.0 °F 54% 29.92 in 6.2 mi WSW 4.6 mph - N/A   Mostly Cloudy
7:15 PM 75.2 °F 59.0 °F 57% 29.92 in 6.2 mi SW 3.5 mph - N/A   Scattered Clouds
7:45 PM 75.2 °F 60.8 °F 61% 29.92 in 6.2 mi SSW 3.5 mph - N/A   Mostly Cloudy
8:00 PM 75 °F 61 °F 52% 29.93 in 6 mi SSW 3.5 mph - -   Mostly Cloudy
8:15 PM 73.4 °F 60.8 °F 65% 29.92 in 6.2 mi NW 3.5 mph - N/A   Mostly Cloudy
8:45 PM 73.4 °F 60.8 °F 65% 29.92 in 5.0 mi Calm Calm - N/A   Mostly Cloudy
9:15 PM 73.4 °F 62.6 °F 69% 29.92 in 5.0 mi North 2.3 mph - N/A   Mostly Cloudy
9:45 PM 71.6 °F 62.6 °F 73% 29.95 in 5.0 mi NNW 4.6 mph - N/A   Mostly Cloudy
10:15 PM 71.6 °F 64.4 °F 78% 29.95 in 5.0 mi NNW 4.6 mph - N/A   Mostly Cloudy
10:45 PM 71.6 °F 64.4 °F 78% 29.95 in 5.0 mi Calm Calm - N/A   Mostly Cloudy
11:00 PM 72 °F 64 °F 71% 29.95 in 5 mi Calm Calm - -   Mist
11:15 PM 71.6 °F 64.4 °F 78% 29.95 in 4.3 mi Calm Calm - N/A   Mostly Cloudy
11:45 PM 71.6 °F 64.4 °F 78% 29.95 in 4.3 mi NNW 1.2 mph - N/A   Mostly Cloudy